Home   Weather   Sandpoint   Past weeks

Flag for USA Past Weather in Sandpoint, Idaho, USA — Yesterday and Last 2 Weeks

45 °F


Feels Like: 45 °F
Forecast: 40 / 53 °F
Wind: No wind

Location: Sandpoint Airport

Current Time: Oct 25, 2016 at 1:35:40 AM

Latest Report: Oct 25, 2016 at 12:55 AM

Visibility: 10 mi

Pressure: 29.84 "Hg (27.61 "Hg at 636m altitude)

Humidity: 93%

Dew Point: 43 °F

Location of SandpointLocation

Past Weather in Sandpoint — Graph


Sandpoint Temperature Yesterday

Maximum temperature yesterday: 57 °F (at 1:15 PM)
Minimum temperature yesterday: 41 °F (at 9:15 PM)
Average temperature yesterday: 47 °F

High & Low Weather Summary for the Past Weeks

High57 °F (Oct 24, 1:15 PM)100% (Oct 10, 12:55 AM)30.42 "Hg (Oct 10, 12:55 AM)
Low23 °F (Oct 12, 6:55 AM)37% (Oct 11, 12:55 PM)29.39 "Hg (Oct 14, 3:55 AM)
Average43 °F88%29.92 "Hg
* Reported Oct 10 12:15 AM — Oct 25 12:15 AM, Sandpoint, Weather by CustomWeather, © 2016

Note: Actual official high and low records may vary slightly from our data, if they occured in-between our weather recording intervals... More about our weather records


Sandpoint Weather History for the Previous 24 Hours

Scroll right to see more
Time TempWeatherWind HumidityBarometerVisibility
12:15 AM
Tue, Oct 25
45 °FRain. Passing clouds.No wind93%29.84 "Hg10 mi
11:55 PM
Mon, Oct 24
45 °FPassing clouds.No wind93%29.83 "Hg10 mi
11:35 PM46 °FPassing clouds.8 mph87%29.82 "Hg10 mi
11:15 PM45 °FPassing clouds.No wind93%29.83 "Hg10 mi
10:55 PM43 °FClear.No wind100%29.83 "Hg10 mi
10:15 PM41 °FPassing clouds.No wind100%29.83 "Hg10 mi
9:55 PM41 °FClear.No wind100%29.83 "Hg10 mi
9:15 PM41 °FClear.3 mph100%29.82 "Hg10 mi
8:55 PM43 °FClear.No wind93%29.82 "Hg10 mi
8:15 PM45 °FClear.3 mph93%29.83 "Hg10 mi
7:55 PM45 °FClear.No wind93%29.83 "Hg10 mi
7:15 PM46 °FClear.No wind87%29.84 "Hg10 mi
6:55 PM46 °FPassing clouds.No wind93%29.84 "Hg10 mi
6:15 PM50 °FPassing clouds.No wind76%29.83 "Hg10 mi
5:55 PM50 °FClear.8 mph71%29.82 "Hg10 mi
5:15 PM52 °FSunny.5 mph72%29.83 "Hg10 mi
4:55 PM52 °FSunny.3 mph72%29.83 "Hg10 mi
4:15 PM54 °FScattered clouds.9 mph67%29.83 "Hg10 mi
3:55 PM55 °FScattered clouds.10 mph59%29.84 "Hg10 mi
3:35 PM55 °FScattered clouds.6 mph63%29.84 "Hg10 mi
3:15 PM55 °FScattered clouds.9 mph63%29.85 "Hg10 mi
2:55 PM55 °FScattered clouds.12 mph59%29.85 "Hg10 mi
2:15 PM55 °FSunny.14 mph59%29.86 "Hg10 mi
1:55 PM57 °FSunny.9 mph55%29.88 "Hg10 mi
1:15 PM57 °FSunny.9 mph55%29.89 "Hg10 mi
12:55 PM55 °FSunny.12 mph59%29.89 "Hg10 mi
12:15 PM54 °FSunny.14 mph58%29.90 "Hg10 mi
11:55 AM52 °FSunny.12 mph62%29.90 "Hg10 mi
11:15 AM50 °FSunny.5 mph67%29.91 "Hg10 mi
10:55 AM48 °FScattered clouds.9 mph66%29.92 "Hg10 mi
10:35 AM46 °FScattered clouds.12 mph71%29.92 "Hg10 mi
10:15 AM50 °FScattered clouds.10 mph67%29.92 "Hg10 mi
9:55 AM46 °FSunny.13 mph71%29.91 "Hg10 mi
9:15 AM45 °FScattered clouds.15 mph76%29.92 "Hg10 mi
8:55 AM45 °FSunny.16 mph76%29.91 "Hg10 mi
8:15 AM45 °FSunny.14 mph76%29.91 "Hg10 mi
7:55 AM45 °FSunny.13 mph76%29.92 "Hg10 mi
7:15 AM45 °FPassing clouds.14 mph71%29.91 "Hg10 mi
6:55 AM45 °FPassing clouds.9 mph71%29.91 "Hg10 mi
6:15 AM45 °FClear.13 mph71%29.90 "Hg10 mi
5:55 AM45 °FClear.13 mph71%29.90 "Hg10 mi
5:35 AM45 °FClear.10 mph71%29.90 "Hg10 mi
5:15 AM45 °FClear.12 mph71%29.90 "Hg10 mi
4:55 AM45 °FClear.15 mph71%29.90 "Hg10 mi
4:35 AM45 °FClear.10 mph71%29.91 "Hg10 mi
4:15 AM45 °FClear.10 mph71%29.91 "Hg10 mi
3:55 AM45 °FPassing clouds.13 mph76%29.92 "Hg10 mi
3:35 AM45 °FPassing clouds.13 mph76%29.92 "Hg10 mi
3:15 AM45 °FPassing clouds.13 mph76%29.93 "Hg10 mi
2:55 AM45 °FPassing clouds.9 mph76%29.95 "Hg10 mi
2:35 AM43 °FPassing clouds.6 mph81%29.96 "Hg10 mi
2:15 AM45 °FPassing clouds.9 mph76%29.96 "Hg10 mi
1:55 AM43 °FPassing clouds.9 mph76%29.97 "Hg10 mi
1:35 AM43 °FClear.8 mph76%29.96 "Hg10 mi
1:15 AM43 °FClear.10 mph76%29.96 "Hg10 mi
Weather by CustomWeather, © 2016

See weather overviewHow to use our weather pages